[Date Prev][Date Next][Thread Prev][Thread Next] - [Date Index][Thread Index][Author Index]
2 Line ISS Keps 1-19
- Subject: [sarex] 2 Line ISS Keps 1-19
- From: "Dave Larsen PhD" <doc@xxxxxxxxxxx>
- Date: Wed, 18 Jan 2006 19:17:49 -0800
ISS
1 25544U 98067A 06018.83192130 .00008211 00000-0 60402-4 0 1778
2 25544 051.6434 235.4690 0010420 168.5016 018.5013 15.74080864409620
----
Via the sarex mailing list at AMSAT.ORG courtesy of AMSAT-NA.
To unsubscribe, send "unsubscribe sarex" to Majordomo@amsat.org
AMSAT Home